User: anonymous   Login
Location: Champignolles
(47.0543°N, 4.5663°E)
Time: 16:47:12
(UTC+00:00)
Language:

NOSS 3-3 (A) - Orbit

View from above orbital plane
View from above orbital plane
View from above satellite
View from above satellite

Ground track
Ground track

The orbit data is extracted from the following two-line orbital elements,

1 28537U 05004A   21060.80728292 0.00000000  00000-0  00000-0 0    04
2 28537  63.4259 334.8626 0387813 358.4792   1.5720 13.40817300    08
Epoch (UTC): 01 March 2021 19:22:29
Eccentricity: 0.0387813
inclination: 63.4259°
perigee height: 816 km
apogee height: 1396 km
right ascension of ascending node: 334.8626°
argument of perigee: 358.4792°
revolutions per day: 13.40817300
mean anomaly at epoch: 1.5720°
orbit number at epoch: 0

The dashed part of the orbit path shows where the satellite is in the earth's shadow,  

DLR